Weather in Vakhnevo

Russia / Vologda Oblast     59°47′01″N   45°10′46″E
temp.,
°C
wind,
m/s
gust,
m/s
humid.,
%
clouds,
%
prec.,
mm/h
press.,
hPa
HPBL,
m
1 august, sun
sun100:00+13sw311954 0.0 1002266
03:00+13wsw413905 0.0 1003594
06:00+14wsw4118722 0.0 1004686
09:00+17w4872100 0.0 10061209
12:00+20w586199 0.1 10071450
15:00+23w4850100 0.1 10082089
18:00+21ssw1265100 0.0 100868
21:00+15ssw2390100 0.6 100855
2 august, mon
mon200:00+15sse2499100 5.7 1008110
03:00+15ssw3109813 5.7 1008326
06:00+15sw3997100 0.0 1009328
09:00+20wsw357499 0.0 1009543
12:00+24sw3549100 0.0 10091461
15:00+26sw354573 0.0 10081786
18:00+24ssw266078 0.0 1008260
21:00+20se276934 0.0 1007143
3 august, tue
tue300:00+17sse2798100 1.3 1006192
03:00+18sse4139717 2.3 1005419
06:00+18sse4139310 0.0 1004415
09:00+21s278489 0.0 1003419
12:00+23sw477296 0.0 1003835
15:00+23sw487698 0.8 10031018
18:00+20wsw389283 1.6 1004558
21:00+18w2396100 1.9 100597
4 august, wed
wed400:00+16wnw239789 0.2 100557
03:00+14w229692 0.2 100726
06:00+15w259069 0.0 1008147
09:00+21w3559100 0.0 1008892
12:00+23w454577 0.0 10092201
15:00+22wnw5546100 0.0 10101867
18:00+20w47511 0.0 1011853
21:00+13wnw310690 0.0 1013249
5 august, thu
thu500:00+10nw26831 0.0 1016134
03:00+9nw24946 0.0 101783
06:00+11nnw25845 0.0 1019229
09:00+15nnw356121 0.0 10191157
12:00+18nw45432 0.0 10191662
15:00+18nnw344034 0.0 10191816
18:00+17n24535 0.0 1019328
21:00+11n127071 0.0 102011